SCP
0 0 0 0 0 0 0 0 0 0 0 0 0 0 0 0 0 0 0 0 0 0 0 0 0 0 0 0 0 0 0 0 0 0 0 0 0 0
0 0 0 0 0 0 0 0 0 0 0 0 0 0 0 0 0 0 0 0 0 0 0 0 0 0 0 0 0 0 0 0 0 0 0 0 0 0
0 0 0 0 0 0 0 0 0 0 0 0 0 0 0 0 0 0 0 0 0 0 0 0 0 0 0 0 0 0 0 0 0 0 0 0 0 0
0 0 0 0 0 0 0 0 0 0 0 0 0 0 0 0 0 0 0 0 0 0 0 0 0 0 0 0 0 0 0 0 0 0 0 0 0 0
0 0 0 0 0 0 0 0 0 0 0 0 0 0 0 0 0 0 0 0 0 0 0 0 0 0 0 0 0 0 0 0 0 0 0 0 0 0
0 0 0 0 0 0 0 0 0 0 0 0 0 0 0 0 0 0 0 0 0 0 0 0 0 0 0 0 0 0 0 0 0 0 0 0 0 0
0 0 0 0 0 0 0 0 0 0 0 0 0 0 0 0 0 0 0 0 0 0 0 0 0 0 0 0 0 0 0 0 0 0 0 0 0 0
0 0 0 0 0 0 0 0 0 0 0 0 0 0 0 0 0 0 0 0 0 0 0 0 0 0 0 0 0 0 0 0 0 0 0 0 0 0
0 0 0 0 0 0 0 0 0 0 0 0 0 0 0 0 0 0 0 0 0 0 0 0 0 0 0 0 0 0 0 0 0 0 0 0 0 0
0 0 0 0 0 0 0 0 0 0 0 0 0 0 0 0 0 0 0 0 0 0 0 0 0 0 0 0 0 0 0 0 0 0 0 0 0 0
0 0 0 0 0 0 0 0 0 0 0 0 0 0 0 0 0 0 0 0 0 0 0 0 0 0 0 0 0 0 0 0 0 0 0 0 0 0
0 0 0 0 0 0 0 0 0 0 0 0 0 0 0 0 0 0 0 0 0 0 0 0 0 0 0 0 0 0 0 0 0 0 0 0 0 0
0 0 0 0 0 0 0 0 0 0 0 0 0 0 0 0 0 0 0 0 0 0 0 0 0 0 0 0 0 0 0 0 0 0 0 0 0 0
0 0 0 0 0 0 0 0 0 0 0 0 0 0 0 0 0 0 0 0 0 0 0 0 0 0 0 0 0 0 0 0 0 0 0 0 0 0
0 0 0 0 0 0 0 0 0 0 0 0 0 0 0 0 0 0 0 0 0 0 0 0 0 0 0 0 0 0 0 0 0 0 0 0 0 0
0 0 0 0 0 0 0 0 0 0 0 0 0 0 0 0 0 0 0 0 0 0 0 0 0 0 0 0 0 0 0 0 0 0 0 0 0 0
0 0 0 0 0 0 0 0 0 0 0 0 0 0 0 0 0 0 0 0 0 0 0 0 0 0 0 0 0 0 0 0 0 0 0 0 0 0
0 0 0 0 0 0 0 0 0 0 0 0 0 0 0 0 0 0 0 0 0 0 0 0 0 0 0 0 0 0 0 0 0 0 0 0 0 0
0 0 0 0 0 0 0 0 0 0 0 0 0 0 0 0 0 0 0 0 0 0 0 0 0 0 0 0 0 0 0 0 0 0 0 0 0 0
0 0 0 0 0 0 0 0 0 0 0 0 0 0 0 0 0 0 0 0 0 0 0 0 0 0 0 0 0 0 0 0 0 0 0 0 0 0
0 0 0 0 0 0 0 0 0 0 0 0 0 0 0 0 0 0 0 0 0 0 0 0 0 0 0 0 0 0 0 0 0 0 0 0 0 0
0 0 0 0 0 0 0 0 0 0 0 0 0 0 0 0 0 0 0 0 0 0 0 0 0 0 0 0 0 0 0 0 0 0 0 0 0 0
0 0 0 0 0 0 0 0 0 0 0 0 0 0 0 0 0 0 0 0 0 0 0 0 0 0 0 0 0 0 0 0 0 0 0 0 0 0
Wind_Speed
0 1 1 2 1 1 2 3 3 2 2 3 3 3 4 5 6 3 2 7 5 3 2 1 3 4 4 5 5 6 7 7 7 9 11 13 14 13
1 1 1 1 2 2 3 3 3 4 4 3 2 2 3 5 8 4 3 5 2 3 3 1 2 3 4 5 5 6 7 8 8 10 12 13 15 14
2 2 3 3 2 2 2 3 3 4 4 4 3 2 3 4 5 4 3 2 1 1 3 1 2 4 5 5 6 7 8 9 9 11 12 14 15 16
3 3 3 3 2 2 2 3 3 4 4 5 3 3 3 4 5 4 3 1 1 1 2 2 4 6 7 7 7 7 8 8 9 10 11 13 15 17
6 6 6 6 6 4 4 3 2 2 2 4 4 3 1 2 4 4 4 3 3 4 4 5 6 7 7 8 8 8 8 7 7 8 10 12 14 16
7 7 7 7 6 5 5 6 4 2 1 1 2 1 2 3 4 3 3 3 3 4 6 7 6 8 10 11 10 9 9 8 8 8 9 10 12 15
6 6 6 8 10 8 6 6 5 4 3 2 1 2 2 3 3 3 2 2 2 2 2 3 4 4 6 9 10 11 10 9 10 11 12 12 12 14
4 3 3 5 8 9 9 9 8 6 4 3 3 3 4 4 3 3 2 2 2 2 3 4 4 4 5 5 10 12 11 11 12 13 14 14 14 16
6 6 5 5 7 5 5 4 4 7 8 4 5 6 5 5 4 4 4 2 2 3 3 4 3 4 4 6 12 14 14 14 14 15 16 16 16 17
6 7 6 6 7 7 6 3 2 4 6 5 5 4 4 3 3 2 2 3 3 4 3 3 3 3 5 4 11 13 12 16 17 17 17 17 17 18
6 6 7 6 10 11 8 5 6 6 8 9 7 5 4 4 3 3 3 2 2 3 3 3 3 4 3 4 6 13 18 20 21 20 19 19 19 18
4 6 9 8 10 10 7 6 7 6 7 7 7 7 7 9 12 7 4 3 2 3 4 5 4 4 5 4 5 9 11 17 19 20 21 22 21 13
3 5 5 9 9 8 8 5 6 5 4 4 4 4 6 6 7 6 4 3 2 2 3 4 3 3 3 5 5 5 6 7 9 13 17 21 22 16
4 4 4 8 7 5 5 6 7 6 4 4 4 4 4 4 4 4 4 3 2 3 5 4 4 4 6 8 7 5 6 7 8 10 9 15 16 19
2 3 4 5 5 4 5 6 6 4 4 3 3 3 3 3 3 3 3 3 4 5 5 4 4 5 5 7 8 7 8 7 7 6 7 8 9 10
0 1 1 2 1 2 4 5 4 3 2 2 2 2 3 3 2 2 3 3 3 3 4 5 5 5 5 7 8 9 7 7 7 8 9 10 8 7
1 1 0 1 2 2 2 3 3 3 3 3 3 3 3 3 3 3 3 3 3 4 4 4 4 5 7 8 8 9 8 8 8 9 9 9 9 7
2 2 1 1 1 2 2 2 2 2 2 2 2 3 3 3 3 3 3 3 4 4 5 5 5 5 4 5 9 8 7 7 7 7 7 8 10 8
2 2 1 1 1 1 0 0 1 0 0 1 2 3 3 4 4 4 4 4 4 4 5 5 4 5 9 9 6 7 7 7 7 8 7 7 10 10
2 2 1 1 1 1 1 0 0 1 1 1 2 2 3 3 5 5 5 5 6 6 6 5 4 5 8 10 10 10 16 12 9 9 9 8 8 13
2 2 2 1 1 1 1 1 1 2 2 2 3 4 3 4 4 5 5 10 9 6 7 8 7 13 10 8 9 8 10 15 15 11 9 9 10 9
3 3 2 2 1 1 2 2 2 3 3 3 4 4 4 4 5 6 6 6 6 7 8 9 8 7 7 10 12 12 13 13 13 20 22 20 12 7
4 4 3 3 2 2 2 3 3 3 3 4 4 4 4 5 5 5 6 7 8 9 9 10 8 7 9 10 11 12 15 15 10 10 11 17 22 24
Wind_Direction
228 247 226 230 228 230 206 175 169 200 256 249 234 212 161 136 146 128 104 145 170 181 153 78 20 358 342 326 318 314 313 314 310 301 290 279 272 270
353 333 301 269 245 224 213 213 190 183 211 235 242 229 170 150 155 150 148 169 242 218 173 112 10 339 325 317 313 311 308 307 307 307 303 293 283 273
297 269 258 259 256 242 219 211 211 192 205 233 236 234 178 159 148 145 126 110 1 167 164 166 310 305 300 297 296 300 303 307 309 310 308 305 298 290
25 39 20 9 352 316 278 238 224 211 198 216 231 231 203 168 138 123 107 83 34 138 175 263 290 292 289 284 280 282 286 295 304 309 310 309 305 298
56 56 41 39 27 8 359 342 293 254 215 203 218 216 172 119 106 92 75 48 23 19 1 334 317 312 306 300 293 286 282 282 290 299 307 309 307 303
56 54 48 45 36 22 31 13 360 355 342 203 200 180 115 91 96 91 70 44 16 353 333 317 338 354 346 337 324 306 288 278 282 292 297 297 298 302
60 53 49 46 46 48 52 33 23 24 25 38 65 80 80 71 78 79 78 40 340 320 346 342 349 342 333 325 318 308 298 283 281 287 290 289 288 294
64 62 66 52 42 41 44 43 41 41 34 34 39 61 67 63 66 68 72 58 322 337 8 319 317 303 296 293 297 304 308 298 292 291 290 287 286 288
48 31 22 47 49 23 18 40 58 59 55 48 49 50 54 38 39 44 38 30 290 297 315 279 276 282 286 302 316 321 325 322 314 306 299 293 288 286
62 42 22 31 36 19 355 352 59 81 66 60 57 42 48 44 34 17 344 317 290 290 304 285 296 293 303 310 312 317 343 351 341 330 321 312 298 289
79 70 47 34 29 22 8 13 46 42 49 41 31 19 15 27 46 36 12 16 343 324 346 331 330 330 314 301 321 347 350 341 333 328 329 331 325 311
78 89 59 43 28 25 22 34 46 22 8 9 8 15 36 45 51 51 40 38 17 317 4 7 349 353 323 314 348 343 333 323 322 325 324 323 324 323
51 78 56 38 24 22 42 42 24 15 354 355 5 29 43 46 42 35 31 37 15 300 332 359 335 329 294 306 313 303 304 318 323 317 314 313 312 313
57 74 44 28 12 22 38 18 20 27 19 16 29 39 40 32 18 1 353 349 316 283 284 287 270 282 293 295 293 299 310 305 303 301 300 307 313 316
106 95 55 35 18 12 14 26 43 48 35 27 29 29 21 1 347 343 348 340 314 299 300 296 284 287 285 286 288 295 302 293 281 291 307 313 308 310
81 133 48 46 72 358 24 42 47 34 40 30 21 9 352 342 342 348 337 324 313 299 295 303 306 304 296 289 289 290 287 286 298 297 295 293 292 289
43 351 321 76 67 54 50 51 42 29 34 31 18 351 335 335 333 334 323 317 310 304 307 299 286 282 280 280 280 275 277 279 280 285 287 289 289 285
3 334 334 62 77 65 53 42 27 17 35 19 353 333 327 323 314 310 307 305 300 296 295 299 309 312 299 274 257 268 270 273 280 287 293 296 297 295
336 326 343 17 81 94 108 249 276 334 8 305 297 301 305 308 308 303 298 295 291 288 289 294 304 309 307 302 286 290 301 301 301 298 293 289 292 296
295 274 261 251 210 195 228 250 264 290 282 279 285 287 288 292 296 295 293 291 295 295 294 288 283 283 288 294 293 290 284 278 278 280 281 279 275 283
311 306 289 260 219 205 224 243 248 254 260 262 264 266 265 266 276 282 286 292 296 295 292 289 281 295 294 290 282 276 276 276 274 273 275 279 282 281
321 314 308 295 269 235 238 243 247 251 258 257 256 257 256 257 265 272 275 280 281 280 281 284 284 285 275 275 279 284 285 284 277 277 272 267 266 266
332 327 323 318 308 288 267 259 256 254 252 252 252 250 249 252 253 258 264 269 275 279 283 286 284 273 270 272 278 280 281 285 287 282 273 267 265 263